Weather History for KDMW - March, 2014

Change the Weather History Date:

Tuesday, March 25, 2014

  Actual Average (KTHV) Record (KTHV)
Temperature  
Mean Temperature 28 °F -  
Max Temperature 32 °F 0 °F 72 °F (2003)
Min Temperature 24 °F - 19 °F (2015)
Degree Days  
Heating Degree Days 37    
Moisture  
Dew Point 21 °F    
Average Humidity 76    
Maximum Humidity 93    
Minimum Humidity 37    
Precipitation  
Precipitation 0.05 in - - ()
Sea Level Pressure  
Sea Level Pressure 29.97 in    
Wind  
Wind Speed 2 mph (East)    
Max Wind Speed 8 mph    
Max Gust Speed -    
Visibility 5 miles    
Events Rain , Snow    
Averages and records for this station are not official NWS values.
T = Trace of Precipitation, MM = Missing Value Source: NWS Daily Summary

Daily Weather History Graph

Daily Weather History Graph

Search for Another Location

Airport or City:

Trip Planner

Search our weather history database for the weather conditions in past years. The results will help you decide how hot, cold, wet, or windy it might be!

Date:

Astronomy

Mar. 25, 2014 Rise Set
Actual Time 7:03 AM EDT 7:25 PM EDT
Civil Twilight 6:36 AM EDT 7:52 PM EDT
Nautical Twilight 6:04 AM EDT 8:23 PM EDT
Astronomical Twilight 5:32 AM EDT 8:56 PM EDT
Moon 3:22 AM EDT (3/25) 1:54 PM EDT (3/25)
Length of Visible Light 13h 15m
Length of Day
12h 21m
Waning Crescent, 32% of the Moon is Illuminated
Mar 25
Waning Crescent
Mar 30
New
Apr 7
First Quarter
Apr 15
Full
Apr 22
Last Quarter

Hourly Weather History & Observations

Time (EDT) Temp. Windchill Dew Point Humidity Pressure Visibility Wind Dir Wind Speed Gust Speed Precip Events Conditions
12:10 AM 26.6 °F - 6.8 °F 43% 30.12 in 10.0 mi Calm Calm - N/A   Scattered Clouds
12:30 AM 26.6 °F - 8.6 °F 47% 30.12 in 10.0 mi Calm Calm - N/A   Scattered Clouds
12:50 AM 26.6 °F - 8.6 °F 47% 30.11 in 10.0 mi Calm Calm - N/A   Clear
1:10 AM 26.6 °F - 8.6 °F 47% 30.11 in 10.0 mi Calm Calm - N/A   Scattered Clouds
1:30 AM 26.6 °F - 10.4 °F 51% 30.10 in 10.0 mi Calm Calm - N/A   Scattered Clouds
1:50 AM 26.6 °F - 10.4 °F 51% 30.10 in 10.0 mi Calm Calm - N/A   Scattered Clouds
2:10 AM 26.6 °F - 6.8 °F 43% 30.10 in 10.0 mi Calm Calm - N/A   Scattered Clouds
2:30 AM 26.6 °F - 6.8 °F 43% 30.09 in 10.0 mi Calm Calm - N/A   Scattered Clouds
2:50 AM 26.6 °F 22.6 °F 5.0 °F 40% 30.09 in 10.0 mi ESE 3.5 mph - N/A   Scattered Clouds
3:10 AM 26.6 °F - 3.2 °F 37% 30.08 in 10.0 mi Calm Calm - N/A   Scattered Clouds
3:30 AM 26.6 °F - 6.8 °F 43% 30.08 in 10.0 mi Calm Calm - N/A   Clear
3:50 AM 24.8 °F - 6.8 °F 46% 30.07 in 10.0 mi Calm Calm - N/A   Clear
4:10 AM 24.8 °F 20.5 °F 6.8 °F 46% 30.06 in 10.0 mi SE 3.5 mph - N/A   Clear
4:30 AM 24.8 °F 17.9 °F 6.8 °F 46% 30.06 in 10.0 mi SE 5.8 mph - N/A   Scattered Clouds
4:50 AM 24.8 °F 17.9 °F 8.6 °F 50% 30.05 in 10.0 mi SE 5.8 mph - N/A   Scattered Clouds
5:10 AM 24.8 °F 17.9 °F 8.6 °F 50% 30.05 in 10.0 mi SE 5.8 mph - N/A   Mostly Cloudy
5:30 AM 24.8 °F 20.5 °F 10.4 °F 54% 30.04 in 10.0 mi SE 3.5 mph - N/A   Overcast
5:50 AM 26.6 °F 19.1 °F 10.4 °F 51% 30.04 in 10.0 mi SE 6.9 mph - N/A   Overcast
6:10 AM 26.6 °F 19.1 °F 10.4 °F 51% 30.04 in 10.0 mi SE 6.9 mph - N/A   Overcast
6:30 AM 26.6 °F 22.6 °F 12.2 °F 55% 30.03 in 10.0 mi ESE 3.5 mph - N/A   Overcast
6:50 AM 26.6 °F - 14.0 °F 59% 30.03 in 10.0 mi Calm Calm - N/A   Overcast
7:10 AM 26.6 °F - 14.0 °F 59% 30.04 in 10.0 mi Calm Calm - N/A   Overcast
7:30 AM 26.6 °F 22.6 °F 14.0 °F 59% 30.04 in 10.0 mi SE 3.5 mph - N/A   Overcast
7:50 AM 26.6 °F - 15.8 °F 64% 30.04 in 10.0 mi Calm Calm - N/A   Mostly Cloudy
8:10 AM 28.4 °F 24.6 °F 17.6 °F 64% 30.04 in 10.0 mi SE 3.5 mph - N/A   Mostly Cloudy
8:30 AM 30.2 °F 26.7 °F 19.4 °F 64% 30.03 in 7.0 mi SSE 3.5 mph - N/A Snow Light Snow
8:50 AM 30.2 °F 25.4 °F 19.4 °F 64% 30.03 in 10.0 mi SE 4.6 mph - N/A   Overcast
9:10 AM 30.2 °F 25.4 °F 19.4 °F 64% 30.02 in 10.0 mi SE 4.6 mph - N/A   Mostly Cloudy
9:30 AM 30.2 °F 26.7 °F 24.8 °F 80% 30.02 in 4.0 mi SE 3.5 mph - N/A Snow Light Snow
9:50 AM 32.0 °F 28.7 °F 23.0 °F 69% 30.02 in 10.0 mi SE 3.5 mph - N/A   Mostly Cloudy
10:10 AM 30.2 °F 22.6 °F 26.6 °F 86% 30.02 in 1.8 mi SSE 8.1 mph - N/A Rain Light Freezing Rain
10:30 AM 30.2 °F 25.4 °F 26.6 °F 86% 30.03 in 1.0 mi South 4.6 mph - N/A Snow Light Snow
10:50 AM 30.2 °F - 26.6 °F 86% 30.02 in 0.8 mi Calm Calm - N/A Snow Snow
11:10 AM 30.2 °F - 28.4 °F 93% 30.02 in 0.5 mi Calm Calm - N/A Snow Snow
11:30 AM 30.2 °F - 28.4 °F 93% 30.01 in 0.8 mi Calm Calm - 0.01 in Snow Light Snow
11:50 AM 30.2 °F 23.4 °F 28.4 °F 93% 30.01 in 1.2 mi SSE 6.9 mph - N/A Snow Light Snow
12:10 PM 30.2 °F 23.4 °F 26.6 °F 86% 30.00 in 1.2 mi SSE 6.9 mph - N/A Snow Light Snow
12:30 PM 30.2 °F 26.7 °F 28.4 °F 93% 29.98 in 1.0 mi SSE 3.5 mph - N/A Snow Light Snow
12:50 PM 30.2 °F 23.4 °F 28.4 °F 93% 29.98 in 0.8 mi SE 6.9 mph - N/A Snow Light Snow
1:10 PM 30.2 °F 24.3 °F 28.4 °F 93% 29.97 in 1.2 mi SE 5.8 mph - 0.01 in Snow Light Snow
1:30 PM 30.2 °F 26.7 °F 28.4 °F 93% 29.95 in 0.8 mi ESE 3.5 mph - 0.01 in Snow Snow
1:50 PM 30.2 °F 26.7 °F 28.4 °F 93% 29.94 in 0.8 mi ESE 3.5 mph - N/A   Overcast
2:10 PM 30.2 °F 22.6 °F 28.4 °F 93% 29.93 in 0.8 mi SE 8.1 mph - 0.01 in Snow Light Snow
2:30 PM 30.2 °F 24.3 °F 28.4 °F 93% 29.91 in 1.2 mi East 5.8 mph - 0.01 in Snow Light Snow
2:50 PM 30.2 °F 26.7 °F 28.4 °F 93% 29.91 in 0.8 mi ESE 3.5 mph - N/A Snow Light Snow
3:10 PM 30.2 °F 25.4 °F 28.4 °F 93% 29.90 in 0.5 mi East 4.6 mph - 0.01 in Snow Snow
3:30 PM 30.2 °F 24.3 °F 28.4 °F 93% 29.89 in 0.8 mi East 5.8 mph - 0.01 in Snow Light Snow
3:50 PM 30.2 °F - 28.4 °F 93% 29.88 in 0.8 mi Calm Calm - N/A Snow Light Snow
4:10 PM 30.2 °F 24.3 °F 28.4 °F 93% 29.87 in 1.0 mi NNE 5.8 mph - 0.01 in Snow Light Snow
4:30 PM 30.2 °F 23.4 °F 28.4 °F 93% 29.86 in 1.5 mi NE 6.9 mph - 0.01 in Snow Light Snow
4:50 PM 30.2 °F 24.3 °F 28.4 °F 93% 29.85 in 1.5 mi NNE 5.8 mph - N/A Snow Light Snow
5:10 PM 30.2 °F 25.4 °F 28.4 °F 93% 29.85 in 2.0 mi NNE 4.6 mph - N/A Snow Light Snow
5:30 PM 30.2 °F 26.7 °F 28.4 °F 93% 29.85 in 7.0 mi NNE 3.5 mph - N/A   Mostly Cloudy
5:50 PM 30.2 °F 26.7 °F 28.4 °F 93% 29.85 in 1.2 mi NE 3.5 mph - N/A Snow Light Snow
6:10 PM 30.2 °F 26.7 °F 28.4 °F 93% 29.85 in 2.0 mi NE 3.5 mph - N/A Snow Light Snow
6:30 PM 30.2 °F - 28.4 °F 93% 29.86 in 1.5 mi Calm Calm - N/A Snow Light Snow
6:50 PM 30.2 °F 26.7 °F 28.4 °F 93% 29.86 in 2.0 mi North 3.5 mph - N/A Snow Light Snow
7:10 PM 30.2 °F 25.4 °F 28.4 °F 93% 29.86 in 2.5 mi North 4.6 mph - N/A   Overcast
7:30 PM 30.2 °F 25.4 °F 28.4 °F 93% 29.87 in 5.0 mi North 4.6 mph - N/A Snow Light Snow
7:50 PM 30.2 °F 26.7 °F 28.4 °F 93% 29.87 in 5.0 mi North 3.5 mph - N/A   Overcast
8:10 PM 30.2 °F 24.3 °F 28.4 °F 93% 29.87 in 5.0 mi North 5.8 mph - N/A   Mostly Cloudy
8:30 PM 30.2 °F 26.7 °F 28.4 °F 93% 29.87 in 5.0 mi NNE 3.5 mph - N/A   Scattered Clouds
8:50 PM 30.2 °F 25.4 °F 26.6 °F 86% 29.87 in 7.0 mi NNE 4.6 mph - N/A   Mostly Cloudy
9:10 PM 30.2 °F 24.3 °F 26.6 °F 86% 29.87 in 5.0 mi North 5.8 mph - N/A   Scattered Clouds
9:30 PM 30.2 °F 26.7 °F 26.6 °F 86% 29.88 in 4.0 mi North 3.5 mph - N/A   Scattered Clouds
9:55 PM 28.4 °F - 26.6 °F 93% 29.89 in 4.0 mi Calm Calm - N/A   Scattered Clouds
10:15 PM 28.4 °F - 26.6 °F 93% 29.88 in 4.0 mi Calm Calm - N/A   Clear
10:35 PM 28.4 °F - 26.6 °F 93% 29.88 in 4.0 mi Calm Calm - N/A   Clear
10:55 PM 28.4 °F - 26.6 °F 93% 29.88 in 4.0 mi Calm Calm - N/A   Clear
11:15 PM 28.4 °F - 26.6 °F 93% 29.88 in 4.0 mi Calm Calm - N/A   Clear
11:35 PM 28.4 °F - 26.6 °F 93% 29.88 in 3.0 mi Calm Calm - N/A   Clear
11:55 PM 28.4 °F - 26.6 °F 93% 29.87 in 3.0 mi Calm Calm - N/A   Scattered Clouds